Powrót do katalogu

ICEYE-X64

AktywnyNaukaSSO
NORAD 67373·PAYLOAD·🇫🇮 Finland

Wystrzelony Jan 11, 2026 z Vandenberg Space Force Base

Loading…

Następne Przeloty (najbliższe 24 godziny)

TLE

ŚwieżeSource: Space-Track

Epoka: Sep 14, 2026, 10:12 UTC

1 67373U 26004L   26257.42523481  .00000613  00000-0  72541-4 0  9992
2 67373  97.8080 254.5996 0005486 188.3266 171.7861 14.88071902 36568

Śledź ICEYE-X64 w czasie rzeczywistym z AllMySat

Download on the App Store